Showing default

FR 1, 1814

Orbit data source: Space-Track

FR 1, 1814 is a payload satellite owned by CNES (FR) in LEO that was launched on Mon, 06 Dec 1965 UTC via an SCOUT X-4 launch vehicle from the Air Force Western Test Range (AFWTR). Payload-class satellites include a variety of spacecraft equipped with specific instruments for various scientific and technological missions. These include communications satellites like Starlink; space stations such as the ISS; scientific satellites like the Hubble; Earth observation satellites from companies like Planet Labs, Umbra, and HawkEye 360; GPS; miniature CubeSats for education and research; and military/defense satellites.

Loading next visibility...
Identifier
1814, 1965-101A
Orbit
LEO
Country
Flag of FRFR
Related business
Manufacturer
Nord
Mission
Spacecraft
Bus & Motor
FR, Unknown motor
Mass
62 kg wet, 62 kg dry
Launch date (UTC)
1965-12-06 (60 years ago)
Launch vehicle
SCOUT X-4
Launch site
Air Force Western Test Range (AFWTR)
Object type
Payload
Rocket body
Debris
Shape & HBR
Unknown
Radar Cross Section
Medium (>0.1 m² and <1 m²)

Expand to show TLE details & history
Last TLE update: 13 hours ago

TLE from 13 hours ago
0 FR 1
1 01814U 65101A   26104.72838132  .00000502  00000-0  83397-4 0  9995
2 01814  75.8630 100.5164 0006354 260.5359  99.5105 14.71579284 46760
Epoch: 2026-04-14T17:28Z
TLE epoch observation values (Epoch: 2026-04-14T17:28:52.146Z)
Latitude
0.00002°
Longitude
-4.60134°
Altitude
659.527 km
Speed
7.527 km/s
True Right ascension
06h 42m 03s
True Declination
0° 00' 00"
Sunlit
Object was in daylight at epoch
Visualization orbit readout
Latitude
Unknown
Longitude
Unknown
Altitude
Unknown
Speed
Unknown
Apparent Right ascension
Unknown
Apparent Declination
Unknown
Sunlit
N/A
Visualization observer readout
Local Sidereal Time
12:34:30
Azimuth
Unknown
Elevation
Unknown
Doppler factor
Unknown
Orbital elements
Apogee altitude
657.934 km
Perigee altitude
648.998 km
Semi-major axis
7,031.603 km
Eccentricity
0.00064
Inclination
75.863°
RAAN
100.5164°
Arg. of periapsis
260.5359°
True anomaly
99.5823°
Mean anomaly
99.5105°
Eccentric anomaly
99.5464°
Mean motion
3.68097 °/min
Orbital period
97.8 mins
BSTAR
0.000083397
Loading maneuver chart data...
Computing Atmospheric mass density...
Loading historical data...
Loading historical data...
Loading historical data...
Loading historical data...
Loading historical data...
Loading historical data...
Loading historical data...

Documentation

Showing up to 5 results
|